GFSSE_prec_cthk_102.txt.gz
RH
19 19 16 17 18 20 23 25 24 23 23 24 26 27 27 24 24 22 23 22 21 21 23 26 28 31 30 30 36 39 43 49 51 53 58 68 67 69 68 68 68 69 59
20 17 17 18 19 21 22 24 25 24 25 27 27 31 30 29 24 23 23 23 23 22 24 27 28 30 31 32 37 42 45 49 53 55 61 64 66 69 69 70 70 66 64
20 17 18 19 20 21 22 24 25 25 25 28 30 31 31 30 28 26 25 24 24 25 26 28 29 31 31 33 39 42 47 50 56 59 64 71 69 67 69 70 68 66 65
25 20 19 20 22 22 21 23 25 26 26 27 29 32 30 30 30 28 26 24 24 26 28 30 31 32 33 36 41 46 50 54 58 66 71 76 69 70 72 72 68 68 66
28 24 22 22 22 21 21 24 27 27 26 26 27 29 29 29 29 28 26 25 25 28 30 32 34 34 34 38 45 50 53 56 61 71 80 73 78 64 69 70 69 69 66
28 28 25 23 22 21 22 25 28 28 27 26 29 29 31 30 29 28 28 28 28 29 32 34 37 40 37 44 49 51 54 60 65 74 77 73 73 64 75 68 71 71 69
29 30 26 25 25 24 26 29 32 31 28 29 29 30 30 30 29 28 29 29 31 33 35 37 38 37 40 45 47 51 55 60 63 75 77 72 77 68 69 74 73 72 71
32 29 27 26 29 32 31 33 34 32 31 30 31 32 31 30 30 31 29 30 32 35 37 36 37 38 42 44 47 50 56 59 65 76 77 75 76 71 71 72 74 74 69
34 32 28 30 32 34 35 36 36 36 33 34 34 33 32 31 32 33 32 31 31 33 37 34 38 45 47 44 46 49 57 60 73 78 77 81 76 72 71 74 78 74 69
35 35 32 34 35 37 38 37 38 36 35 36 36 34 33 32 33 35 33 31 29 31 35 39 39 43 47 46 47 53 56 58 65 78 78 82 81 76 72 79 79 75 68
38 38 38 37 39 41 41 40 41 38 37 36 36 35 35 34 33 35 35 31 30 30 31 38 43 44 49 51 55 66 64 62 64 75 73 80 82 75 79 86 82 75 69
42 42 43 43 45 47 43 44 41 40 39 39 38 35 36 37 37 37 38 36 34 32 32 34 39 43 52 62 58 58 64 68 71 71 68 79 81 81 92 93 84 76 72
47 51 51 53 54 48 46 46 44 42 42 41 41 39 36 41 39 36 39 38 37 35 35 32 36 43 44 55 64 62 64 68 66 66 68 77 84 84 94 89 90 78 76
36 48 54 55 57 49 53 51 46 43 39 39 37 36 37 38 42 37 36 39 38 40 38 36 37 40 43 55 64 67 68 64 66 63 68 70 86 82 96 97 87 77 73
30 40 47 54 49 49 50 50 46 45 41 40 37 37 39 40 42 41 39 35 41 43 38 37 36 38 43 52 60 60 63 63 64 59 61 72 84 87 94 98 86 79 73
29 32 39 46 54 53 52 60 52 48 45 46 42 38 39 42 44 40 38 33 40 43 38 37 35 39 44 53 57 57 59 67 63 59 64 70 80 89 93 98 89 83 74
30 30 32 37 42 51 52 62 59 59 53 47 45 40 39 42 43 42 41 37 36 43 42 39 39 38 44 46 53 52 55 58 57 62 69 72 83 85 93 99 94 78 75
26 27 29 30 34 39 48 55 61 62 65 67 62 48 43 42 42 43 44 42 41 40 42 41 41 38 42 45 54 52 54 55 57 66 69 77 84 88 96 99 97 88 77
26 23 24 26 28 28 32 42 49 57 54 64 61 57 55 49 43 47 49 48 46 47 46 44 43 39 39 43 50 51 51 53 59 67 70 77 79 92 99 97 94 91 91
22 19 17 15 17 20 22 29 34 37 45 58 60 58 52 58 47 54 54 53 50 51 50 47 47 43 38 42 45 45 54 56 62 63 67 88 90 94 98 99 94 88 90
20 20 20 17 16 15 17 19 25 30 34 40 63 66 56 51 51 58 60 62 57 53 52 49 49 47 41 40 44 43 60 55 60 63 70 90 96 98 99 98 86 80 82
25 25 23 22 21 22 22 23 27 34 32 33 45 56 61 62 56 60 61 69 63 59 57 54 52 52 47 41 42 48 56 52 58 65 79 90 97 98 99 95 94 90 79
26 29 30 32 28 26 29 26 26 35 40 37 35 42 46 62 62 58 65 76 73 66 63 61 56 58 52 40 42 45 58 50 60 70 77 84 93 91 95 98 95 94 86
31 34 38 38 38 37 35 37 34 37 44 40 41 38 43 59 63 62 68 72 77 72 67 67 62 62 57 44 45 47 57 55 66 69 80 88 94 89 93 94 98 97 94
36 39 43 45 47 50 50 48 42 37 45 51 55 50 47 51 58 61 57 67 92 76 70 71 65 66 62 49 40 44 58 60 70 72 82 93 93 90 92 95 98 97 97
40 46 51 55 57 62 62 51 45 41 44 55 58 59 52 50 56 62 66 66 68 60 62 74 69 71 64 51 42 47 65 66 74 73 90 92 93 89 95 86 88 97 96

GFSSE_prec_cthk_105.txt.gz
RH
25 20 17 17 16 17 20 23 23 23 23 22 23 25 27 28 26 24 21 20 21 21 22 24 25 27 29 29 31 36 41 44 49 51 51 56 59 62 63 66 73 73 64
24 21 19 18 18 18 20 23 24 24 23 23 23 27 28 29 28 25 23 22 21 21 23 26 27 29 31 30 32 37 42 47 51 52 56 59 59 62 63 69 77 70 65
23 22 20 19 18 19 20 22 23 23 23 24 25 29 29 29 28 26 24 23 22 23 24 27 28 29 31 33 34 38 42 47 52 53 60 69 66 63 61 66 76 68 67
28 28 22 20 20 21 21 22 23 24 25 25 27 29 31 32 33 30 27 25 24 25 27 29 31 32 33 34 35 38 42 46 52 56 63 75 75 67 63 70 77 72 72
25 30 27 22 23 24 23 23 24 27 27 26 26 29 30 32 33 32 30 28 28 27 29 31 33 35 37 35 37 41 44 49 53 58 70 87 82 66 61 75 73 74 74
26 31 28 24 25 25 24 24 26 29 29 28 28 31 32 33 34 34 31 30 29 29 30 34 33 38 36 36 41 46 46 49 54 61 71 79 75 69 75 70 74 74 72
29 33 29 25 26 25 26 27 28 31 31 29 29 31 33 34 34 34 33 31 31 37 36 36 34 36 35 38 44 45 45 49 56 68 73 88 72 77 73 76 76 72 77
30 33 31 28 28 28 29 30 31 33 33 31 29 32 33 34 34 35 35 34 32 34 38 38 36 37 35 40 44 46 47 50 55 66 80 81 70 78 76 75 80 77 76
30 34 35 30 29 30 31 33 35 36 37 34 32 33 33 33 34 35 36 36 34 33 36 38 36 35 36 40 42 46 48 51 56 65 77 89 74 73 78 75 79 80 79
31 36 38 35 30 32 33 34 35 37 38 37 35 35 35 35 34 35 36 36 35 36 37 33 36 38 39 43 43 46 52 58 54 64 72 77 79 77 81 80 80 79 78
35 34 41 40 35 33 37 37 38 39 40 38 37 37 36 36 35 34 35 36 34 36 36 40 42 38 39 42 44 48 57 61 59 58 66 73 82 74 83 83 77 80 78
44 40 42 43 41 38 44 45 44 42 44 40 39 38 39 39 40 40 37 36 37 35 34 35 40 42 37 44 49 52 55 61 63 71 77 75 76 76 83 87 86 82 80
34 49 46 51 45 45 45 48 51 48 48 44 41 42 41 43 45 45 48 43 37 38 36 34 36 37 38 40 47 47 60 63 63 68 69 69 65 71 81 90 97 88 83
28 39 52 54 54 55 56 54 59 54 51 48 49 46 47 44 46 49 49 49 44 40 41 40 35 37 42 42 44 44 58 73 69 66 64 65 62 72 83 91 97 97 90
28 29 36 52 58 61 61 63 61 57 56 47 47 44 45 49 48 49 51 54 49 47 45 44 42 41 42 46 54 54 57 65 65 63 66 63 61 62 81 94 97 94 94
31 31 31 35 51 59 64 67 65 58 58 53 51 43 41 40 44 45 50 52 52 52 47 48 50 51 42 43 50 57 57 60 58 57 66 64 59 63 81 91 94 97 95
33 33 33 32 36 45 59 66 70 63 63 62 57 51 41 43 44 47 45 46 48 55 51 50 48 50 51 46 48 50 50 51 56 54 58 63 63 70 76 94 91 87 93
31 33 31 32 32 35 42 53 66 65 64 68 65 55 47 40 41 44 48 47 47 48 49 51 53 50 50 47 45 48 50 54 54 54 53 61 65 70 81 88 93 96 96
31 30 29 30 31 32 30 33 43 54 63 68 73 68 57 54 51 43 46 44 47 50 47 50 51 52 52 49 45 44 46 55 55 51 51 57 66 68 75 85 90 92 98
30 27 26 26 26 28 29 27 25 32 44 51 62 63 65 64 62 57 51 49 47 55 51 50 51 52 52 51 48 41 42 48 46 44 49 59 64 67 76 85 86 89 98
30 24 21 19 18 17 17 18 20 22 27 36 45 57 65 70 72 69 65 60 54 54 58 56 53 54 54 52 51 42 42 44 43 47 50 61 58 64 82 87 88 89 97
26 25 23 22 21 20 18 18 18 20 19 31 40 39 50 55 69 79 73 71 58 58 62 65 56 58 61 58 55 48 43 43 39 45 46 51 61 69 90 94 98 97 97
27 26 26 27 27 28 27 25 24 23 21 21 33 38 38 44 51 74 68 82 60 59 60 69 62 59 63 60 56 54 47 43 40 44 45 50 62 72 88 93 98 98 98
30 28 29 31 33 36 37 35 34 32 30 26 29 47 35 37 53 53 62 88 64 62 65 74 72 67 67 59 56 55 47 47 41 45 49 56 65 73 81 94 95 98 98
33 31 31 34 37 41 43 43 42 39 39 41 33 49 45 42 44 49 53 65 76 72 70 79 88 78 71 64 53 55 49 48 45 49 55 60 66 75 86 90 93 96 98
37 36 35 37 42 44 48 50 50 51 50 52 49 52 52 47 44 51 57 61 67 78 73 70 73 87 77 67 61 59 50 45 43 50 60 67 72 80 87 88 89 91 94

GFSSE_prec_cthk_111.txt.gz
RH
31 32 25 17 16 14 15 16 16 16 18 19 20 21 22 24 24 21 18 18 19 21 21 22 24 26 27 30 32 35 38 40 40 46 50 55 58 54 58 59 59 61 63
22 26 23 19 17 14 15 17 18 18 18 20 20 21 23 24 25 23 19 19 18 20 21 22 25 27 27 29 31 33 36 36 40 46 50 53 56 58 60 63 64 65 65
26 26 24 19 17 15 15 17 19 19 19 19 20 21 22 24 27 26 22 21 19 19 20 22 25 26 28 28 29 31 35 38 44 47 51 57 58 60 59 65 71 74 68
25 27 25 21 19 17 16 18 20 20 20 20 20 21 22 24 27 28 26 24 22 21 21 22 23 25 27 29 31 32 36 41 47 50 56 56 64 70 70 71 71 69 73
21 22 25 24 21 20 19 20 21 22 21 21 21 21 22 24 27 29 28 27 25 24 23 23 25 25 26 29 30 31 36 42 49 53 59 72 82 81 80 76 76 74 79
21 21 26 26 25 24 23 23 23 23 22 22 22 22 24 25 27 28 28 29 27 26 25 25 27 26 27 29 30 32 39 44 49 53 66 77 85 76 78 80 77 78 77
20 23 24 28 28 26 26 26 27 25 24 24 25 24 26 28 29 29 29 29 29 28 28 29 30 31 31 30 31 35 40 43 48 57 69 79 77 69 75 77 77 81 79
20 22 25 27 30 27 28 29 29 28 27 27 28 27 28 31 32 31 31 31 30 30 28 31 32 32 32 31 30 34 40 43 47 54 67 80 77 71 67 79 78 80 82
22 21 23 27 31 30 29 30 32 30 29 29 30 30 30 31 32 33 32 32 31 31 30 30 31 31 31 31 30 30 37 43 47 59 64 74 71 71 77 75 77 81 83
23 23 24 24 29 33 31 32 32 32 31 30 31 32 30 32 33 34 34 33 33 32 32 31 31 32 31 32 33 32 35 38 41 52 63 63 74 78 87 78 77 83 86
25 30 26 29 29 34 33 33 36 35 33 32 32 34 32 33 33 34 32 32 33 34 33 33 31 31 31 31 31 33 34 37 39 47 60 61 65 74 82 76 73 78 80
29 27 33 39 35 35 37 35 35 37 37 35 34 35 35 34 35 33 33 33 34 35 36 36 34 32 30 29 29 30 32 36 42 49 54 65 70 72 70 76 79 71 75
26 32 30 35 39 37 43 42 41 40 40 39 38 37 38 37 36 35 34 33 34 35 37 37 36 33 30 28 27 27 28 31 40 44 54 63 69 70 72 65 65 68 67
30 29 36 41 46 46 46 46 46 45 45 43 42 42 43 41 40 38 36 35 34 34 35 36 36 35 33 31 28 28 30 33 35 43 49 61 69 71 68 62 60 64 63
31 32 37 39 47 52 56 58 56 55 53 52 53 50 49 48 47 43 38 36 35 35 36 36 36 37 36 35 35 31 31 34 37 42 50 57 72 74 65 64 61 63 59
33 34 36 37 39 47 53 60 61 67 64 61 62 63 64 60 56 51 42 40 38 36 38 39 38 39 37 38 38 39 38 40 42 44 48 57 62 69 63 57 58 59 57
38 38 38 39 39 43 46 51 56 60 65 75 70 73 76 77 67 57 46 44 41 40 42 46 45 41 41 41 41 44 45 46 44 44 46 49 53 54 57 55 50 55 58
39 40 40 38 36 36 42 45 46 48 57 67 66 73 79 77 85 68 56 51 47 46 44 47 50 47 46 46 43 42 43 46 46 46 45 49 52 54 55 54 45 48 58
40 42 41 38 35 32 30 30 39 42 42 51 56 65 74 76 79 76 69 60 57 52 51 46 48 50 50 50 46 46 45 46 45 46 45 47 47 50 55 59 52 43 51
43 44 42 37 35 32 28 26 24 25 28 37 40 47 54 62 65 72 77 63 64 60 53 51 47 49 51 52 54 51 49 47 49 48 49 44 43 41 44 46 47 43 50
49 50 41 34 33 29 27 25 24 22 23 24 25 32 38 46 55 61 65 71 70 61 59 60 58 55 59 62 64 63 53 51 53 52 51 46 42 39 40 38 40 45 49
55 50 39 34 32 28 25 24 23 22 20 20 18 19 21 27 35 40 40 50 62 68 74 68 72 76 70 70 76 71 69 58 51 53 53 51 46 43 39 37 41 40 45
57 50 39 36 32 28 25 23 22 22 21 20 18 17 14 15 19 28 34 41 41 46 61 76 92 95 93 89 85 80 76 61 54 56 54 54 52 44 41 40 40 40 42
58 44 41 38 32 29 27 24 25 26 24 23 22 20 19 19 20 25 30 38 46 47 56 63 82 91 89 83 93 93 78 63 56 54 54 56 55 49 42 41 43 45 47
56 42 39 37 32 29 28 29 29 29 30 27 26 26 26 26 26 25 29 36 44 52 62 52 52 60 68 68 71 81 84 72 65 52 54 58 57 51 47 42 45 53 54
56 38 34 31 29 27 27 30 30 30 31 33 31 30 30 30 29 29 31 41 36 51 71 59 56 57 57 58 67 70 69 73 68 59 57 61 62 55 50 44 48 57 62

GFSSE_prec_cthk_114.txt.gz
RH
32 32 29 26 20 14 15 15 14 15 15 16 17 17 16 17 18 13 14 15 17 18 19 20 24 26 27 30 33 36 40 42 44 45 48 49 53 56 52 55 58 60 63
25 30 25 25 21 16 15 16 16 16 16 17 18 17 18 20 20 16 14 16 16 18 18 20 22 25 27 30 32 35 38 40 39 44 44 50 56 55 55 63 59 65 66
24 25 26 25 23 20 16 17 18 18 18 18 18 19 20 21 22 20 17 17 17 18 19 21 23 24 26 29 31 35 35 37 41 44 45 49 56 56 63 67 67 69 72
22 27 29 26 26 22 18 18 20 20 21 20 19 19 21 22 23 23 21 20 19 19 20 21 23 24 27 30 32 33 37 40 43 45 49 57 57 66 69 74 72 70 68
19 23 29 28 26 24 21 19 20 21 22 22 22 21 22 24 26 26 25 23 22 21 21 23 24 26 29 31 34 36 39 42 43 45 53 63 64 72 71 78 72 74 72
17 18 22 27 27 26 24 22 22 22 22 23 22 23 24 25 27 29 28 26 24 23 23 24 26 28 30 32 35 35 39 44 45 45 51 59 73 71 75 78 75 73 74
18 18 22 25 29 29 28 26 25 24 24 24 24 25 25 27 29 30 29 28 27 25 24 27 29 30 31 34 36 36 40 44 43 41 51 64 74 69 80 75 74 75 72
21 20 19 24 28 32 31 30 28 27 26 26 25 26 26 28 29 30 29 28 27 27 25 26 30 31 32 33 35 35 40 43 41 45 50 62 69 68 68 69 73 73 75
25 23 22 21 24 30 31 32 31 30 28 28 27 27 26 27 29 30 30 29 28 28 28 28 29 30 31 33 36 35 38 43 43 40 51 56 67 65 63 67 73 71 72
25 27 25 24 24 26 33 33 34 34 33 31 29 29 29 28 29 31 30 29 29 28 28 30 30 30 31 30 33 37 38 44 47 45 39 51 56 58 61 68 70 73 72
25 27 30 29 29 29 29 35 34 35 35 35 34 32 32 30 31 32 32 31 30 29 29 30 31 31 31 31 31 34 37 41 48 47 43 46 56 54 60 65 67 65 72
28 29 30 31 32 33 32 35 37 35 36 36 37 36 36 34 33 33 34 33 30 30 29 31 33 34 34 31 30 30 34 38 43 49 48 47 51 57 61 66 69 70 68
30 29 32 40 39 37 38 35 39 40 40 40 41 40 38 38 36 34 35 35 33 31 31 30 32 34 35 34 30 29 30 32 36 43 47 49 51 60 66 68 73 74 76
33 31 32 41 53 45 41 44 45 47 46 43 43 43 42 41 40 38 35 37 36 33 31 30 31 33 35 35 35 33 30 32 35 40 44 51 57 61 65 72 66 63 69
30 34 43 42 51 55 46 52 53 50 53 53 50 48 46 45 45 45 42 42 41 38 34 32 31 33 34 36 37 38 37 33 35 39 42 47 59 64 66 73 70 66 64
27 33 45 48 47 50 52 58 61 62 65 62 59 59 57 53 52 52 54 52 49 43 38 34 34 34 35 37 40 39 39 41 39 39 45 49 51 61 63 66 65 66 61
28 31 34 39 42 46 50 50 54 67 68 65 64 71 70 69 68 63 61 58 57 53 43 39 38 41 40 40 40 43 44 44 45 45 46 46 47 51 54 56 58 59 60
29 32 36 40 44 43 43 46 50 51 60 66 69 70 70 72 75 78 80 79 76 64 50 48 45 43 45 45 45 48 51 50 46 45 44 46 46 47 52 53 55 56 55
31 34 36 40 44 42 42 39 38 48 51 50 55 62 67 74 79 76 82 84 88 81 70 57 53 52 49 49 49 55 57 57 53 49 44 41 44 47 46 46 51 54 55
34 35 38 42 41 42 40 36 33 33 37 43 44 45 49 57 64 69 72 75 81 88 83 85 70 59 54 52 52 56 62 62 62 55 50 46 43 45 44 40 43 44 44
39 41 41 44 45 44 38 34 31 29 29 27 30 34 40 42 47 52 59 63 65 68 74 83 81 82 81 73 64 64 63 61 65 59 53 48 49 46 44 38 38 40 39
44 44 44 45 49 47 37 34 33 30 26 24 24 25 25 28 36 40 39 39 44 54 60 70 78 86 81 87 92 88 82 76 66 61 57 54 53 48 44 43 38 37 38
55 56 53 49 50 48 38 34 32 30 27 24 23 23 22 21 20 22 28 31 30 35 40 48 55 67 79 79 85 95 98 95 85 73 60 54 52 52 51 46 43 37 37
63 57 57 54 56 47 36 33 32 30 26 25 23 22 20 21 20 18 16 18 21 23 27 29 39 50 57 63 74 78 91 97 91 86 73 62 55 53 50 50 46 40 38
62 57 57 53 51 42 34 28 28 29 27 25 24 24 24 23 25 25 23 22 22 26 29 30 29 37 48 60 64 78 84 88 81 83 81 69 59 54 49 51 48 44 39
63 58 57 58 56 44 38 32 30 30 28 26 25 25 26 27 28 30 29 28 27 28 32 33 33 33 42 50 56 63 68 70 67 65 72 74 66 55 52 54 54 45 42

GFSSE_prec_cthk_117.txt.gz
RH
28 26 26 24 24 22 19 16 14 15 15 15 14 13 13 13 15 12 14 15 17 19 18 19 21 23 25 29 31 34 37 38 38 38 39 42 46 49 50 47 55 54 55
32 31 27 27 25 22 19 18 17 16 18 17 18 16 15 16 15 13 14 16 17 19 19 20 22 24 25 28 30 31 33 35 34 36 39 43 49 51 51 57 58 58 59
29 30 28 26 26 24 21 21 20 18 18 19 20 20 19 19 19 16 15 16 17 20 20 21 22 23 26 28 29 30 31 31 33 38 39 45 51 56 60 62 64 66 65
28 28 27 26 27 25 24 23 21 20 21 21 21 21 22 22 21 20 17 17 18 20 21 22 23 24 26 28 28 30 31 31 34 39 43 50 52 61 68 71 71 69 71
25 26 26 29 30 29 25 23 22 22 22 23 22 22 23 23 24 23 22 21 20 21 22 24 24 25 27 29 29 32 33 32 36 39 44 52 56 67 75 75 76 72 70
21 21 22 26 29 30 28 25 24 23 23 24 23 23 24 23 25 26 26 25 23 23 23 25 26 26 28 30 32 35 35 35 38 39 44 50 59 65 71 76 77 73 71
21 21 21 23 28 31 32 30 27 26 25 25 25 24 24 25 26 28 29 28 27 25 25 25 27 28 29 31 34 37 37 36 38 39 42 50 60 65 66 74 75 75 72
23 23 23 23 23 29 35 33 32 30 29 27 26 25 25 25 27 29 31 30 29 28 27 27 28 29 30 32 34 36 36 36 37 38 44 51 58 59 63 68 74 75 74
24 25 25 24 25 25 30 37 36 34 33 31 28 27 26 26 28 30 32 32 31 30 30 30 31 30 30 31 33 35 36 36 36 38 42 50 56 57 60 61 72 76 76
26 27 28 27 27 25 26 30 37 38 37 35 32 30 29 29 29 30 32 34 33 32 32 32 32 33 32 31 32 33 35 35 36 37 42 43 50 55 55 55 67 72 71
27 27 29 30 30 30 30 30 34 39 40 39 37 34 33 32 30 30 31 33 35 35 34 34 34 35 36 35 33 33 34 35 34 36 41 43 45 52 56 57 67 70 70
30 29 28 32 34 35 35 35 36 42 44 45 44 40 37 35 35 33 33 35 36 37 37 37 37 38 39 38 35 33 33 34 35 34 35 39 42 48 55 60 60 69 71
29 31 32 31 34 39 42 39 37 39 46 48 48 47 44 40 39 37 35 35 37 38 39 40 39 39 39 39 38 36 35 34 34 34 32 34 38 44 52 60 62 68 67
23 28 29 34 40 40 45 51 45 41 46 52 52 52 50 48 46 43 38 37 37 38 38 40 41 41 40 40 40 39 37 37 36 34 34 34 36 42 53 57 69 72 71
20 20 23 32 39 44 50 61 60 58 51 54 59 59 57 55 53 49 45 43 41 40 41 43 43 42 42 42 41 41 41 39 38 36 33 36 40 39 47 57 64 69 71
21 20 23 27 31 38 46 50 53 53 58 60 62 65 65 62 58 57 55 53 50 49 47 48 48 44 43 44 44 44 44 43 41 39 37 38 40 41 43 50 58 65 63
25 23 28 31 29 31 39 51 55 52 52 71 72 71 74 75 70 66 66 62 59 62 58 58 57 54 48 45 46 46 47 45 44 43 40 41 43 44 44 42 47 53 54
28 30 30 31 33 33 36 45 52 51 50 52 68 77 75 80 78 76 75 70 66 70 78 78 78 67 56 48 49 49 49 49 47 47 44 41 41 41 43 43 42 46 52
30 30 30 30 31 33 36 38 38 42 49 50 48 61 73 79 81 81 83 82 78 80 87 79 87 82 66 58 52 58 57 53 53 54 52 47 44 43 42 43 43 42 42
38 36 34 33 34 35 37 38 37 38 40 41 43 47 54 58 66 75 79 80 83 83 92 97 94 84 78 88 78 60 64 63 57 56 59 59 54 47 45 45 44 41 40
50 47 41 40 39 38 38 39 38 39 36 38 35 35 38 43 46 51 58 67 71 73 77 84 84 80 79 99 90 79 82 85 79 81 77 72 69 61 52 50 46 41 41
60 56 53 49 46 44 41 43 47 45 39 35 35 34 32 31 31 31 36 43 48 51 54 63 70 73 75 75 80 92 97 93 84 86 94 90 83 71 66 57 53 41 39
79 71 64 59 56 53 50 50 47 46 43 37 35 33 32 30 28 27 27 27 31 38 41 42 46 52 56 61 68 81 86 87 88 83 83 91 95 81 71 60 59 46 41
84 78 71 63 56 52 53 52 50 46 32 33 32 29 28 28 28 27 26 24 22 22 23 29 35 37 39 46 48 59 67 71 73 76 72 74 91 80 74 60 59 53 45
81 84 74 67 59 55 51 50 48 47 36 30 28 27 25 25 27 28 28 25 23 21 19 17 19 25 26 27 35 40 46 53 62 67 68 70 80 78 71 64 61 56 49
76 78 75 68 62 55 56 56 58 42 44 32 27 26 23 22 23 27 31 32 31 28 27 25 24 24 30 32 30 34 44 47 51 54 59 61 63 68 66 72 67 56 53

GFSSE_prec_cthk_120.txt.gz
RH
28 25 26 26 24 24 23 20 17 15 14 13 13 13 13 13 12 12 14 16 17 16 17 19 22 24 27 29 31 31 31 31 32 35 39 41 45 47 51 54 57 57 59
30 29 30 29 27 25 23 22 19 18 17 16 14 14 15 15 13 13 14 15 16 17 18 20 23 24 25 26 27 28 28 29 29 34 37 41 47 51 52 57 59 60 62
36 37 36 35 31 27 25 24 23 21 19 18 18 17 18 18 16 14 15 16 17 18 19 21 22 24 24 25 25 26 26 26 27 32 36 41 47 52 58 63 64 66 63
30 33 34 36 34 31 28 26 25 24 22 21 21 21 21 21 20 17 17 17 18 19 21 22 23 23 24 25 25 25 26 26 29 33 38 44 48 57 64 66 70 68 70
25 26 29 32 36 36 34 31 28 25 24 23 23 24 24 24 24 22 19 19 20 21 22 22 23 24 24 24 25 25 27 27 31 35 40 46 52 61 67 71 71 72 72
25 26 27 27 30 35 37 35 30 27 27 26 26 26 27 28 28 27 25 23 23 23 23 24 25 25 26 27 27 27 28 29 32 36 38 46 51 61 65 68 72 75 75
28 28 29 27 28 30 34 35 33 30 29 28 27 27 28 29 30 30 30 28 25 24 24 25 26 27 27 29 30 30 30 29 32 35 38 44 53 62 70 70 70 73 77
29 28 28 29 30 30 32 35 36 34 32 31 30 29 28 29 30 30 32 31 30 27 25 26 27 29 30 30 30 31 30 30 32 35 37 43 51 60 61 73 76 75 75
29 29 28 27 28 29 31 31 37 40 38 37 35 33 32 31 32 32 33 34 33 31 28 28 28 30 31 33 33 32 31 30 32 35 36 40 47 53 57 63 66 71 72
30 29 30 29 28 28 29 30 31 37 43 42 41 40 37 35 36 34 36 36 35 34 32 30 29 30 32 34 34 34 32 32 31 33 36 39 42 46 52 55 55 65 75
30 30 29 32 33 32 31 31 33 33 37 44 45 45 43 40 39 39 38 38 38 38 36 34 33 31 32 34 36 36 34 32 30 31 34 38 39 40 45 49 54 64 69
27 29 31 32 35 36 36 36 34 35 37 40 47 48 47 45 44 44 41 41 41 42 41 40 38 36 35 34 37 38 36 34 31 29 30 34 36 40 43 48 51 59 67
18 19 19 24 31 38 42 41 40 38 38 42 44 50 52 50 49 48 46 44 43 44 44 44 41 39 38 37 37 39 38 37 35 32 30 32 35 36 38 46 50 57 61
18 18 19 20 20 27 37 44 46 44 44 40 46 50 54 56 54 53 52 50 50 48 46 46 44 42 42 42 41 41 41 39 37 35 34 34 34 37 37 44 52 57 60
21 20 20 21 23 26 25 33 42 49 54 53 49 54 57 59 60 61 59 59 57 55 53 52 50 47 44 45 44 44 44 43 42 38 37 37 36 35 37 39 49 53 64
22 22 22 21 27 28 28 28 35 41 46 57 60 61 60 61 62 62 62 63 63 63 63 61 54 52 50 50 50 49 47 47 45 44 42 40 38 39 42 42 42 47 53
21 24 23 25 28 29 32 32 36 37 43 49 55 59 68 66 68 68 67 66 66 67 71 70 68 67 60 57 58 57 53 53 51 48 46 45 43 41 43 45 46 45 47
22 29 32 32 34 35 37 34 34 40 43 47 48 52 60 69 76 76 75 75 75 74 74 73 75 77 74 70 72 67 60 55 54 52 53 50 50 48 48 48 48 47 48
28 32 39 41 40 41 40 38 39 42 44 46 46 46 46 50 60 74 78 82 84 88 86 84 91 89 89 74 72 77 76 66 63 61 54 52 54 56 58 57 55 51 52
30 34 39 43 46 43 42 39 37 38 38 37 38 41 44 46 47 54 68 75 78 83 86 90 93 91 96 96 82 80 85 75 74 78 77 70 69 67 67 63 59 57 54
34 36 42 43 48 48 49 44 42 41 39 36 36 37 38 36 40 43 50 59 65 69 76 83 87 92 95 96 97 91 89 83 78 79 83 85 81 81 77 81 78 61 60
40 45 46 49 54 52 52 53 49 45 42 45 42 39 37 35 35 37 37 37 40 45 54 61 68 76 80 82 85 96 93 78 73 72 78 79 85 90 82 74 72 70 61
50 50 52 55 62 65 66 65 60 57 54 50 52 49 39 38 39 37 36 35 34 33 32 35 44 51 54 55 64 76 79 76 82 84 80 76 76 77 70 68 73 72 67
60 63 67 61 67 79 71 68 62 56 54 51 50 46 38 37 39 38 36 35 34 32 29 30 30 33 41 47 47 47 55 61 65 65 60 64 67 62 59 63 62 67 65
73 73 72 76 77 79 74 72 65 58 54 55 53 50 39 37 33 38 35 34 33 32 30 28 26 27 26 29 34 38 36 38 47 51 50 51 52 49 49 56 57 61 66
92 81 84 78 85 83 81 72 68 65 62 58 55 53 42 42 34 30 35 34 32 33 32 32 30 27 26 24 24 31 33 33 30 35 41 42 40 41 46 48 47 54 65

GFSSE_prec_cthk_123.txt.gz
RH
26 26 27 28 28 27 27 24 22 20 18 17 16 14 13 12 12 13 14 14 14 15 17 19 21 24 25 27 27 27 27 28 30 34 35 38 41 45 49 54 56 61 61
27 27 28 30 30 30 29 26 24 22 21 20 18 16 15 15 13 14 14 15 15 15 17 19 21 23 24 24 25 25 26 27 28 31 33 38 44 48 54 56 56 59 60
31 32 34 33 33 33 30 28 27 26 25 23 21 20 19 18 16 15 15 16 16 17 18 19 21 23 24 24 24 23 23 25 26 29 33 41 45 49 55 57 60 63 63
30 32 35 37 36 37 35 31 29 28 29 27 25 23 22 22 20 18 17 17 17 18 19 20 22 23 23 23 23 23 23 25 27 30 35 41 45 48 56 59 62 64 65
24 25 27 31 35 39 40 37 34 32 31 30 28 28 26 26 25 22 20 19 19 20 20 21 23 24 25 25 24 24 25 26 28 33 36 42 49 51 60 62 63 65 66
26 26 28 31 33 35 36 39 40 37 34 32 31 30 29 29 29 28 24 22 22 22 21 22 23 25 25 26 27 27 27 28 30 34 35 40 46 54 61 66 67 68 68
27 28 30 31 31 33 34 36 38 39 37 35 33 32 31 30 31 31 29 26 25 24 23 23 24 25 26 27 27 27 29 30 31 34 35 38 45 53 60 64 66 70 70
29 29 30 30 30 31 32 34 36 40 40 40 39 36 35 33 34 33 33 31 29 28 26 26 25 27 27 29 29 28 29 30 31 34 37 38 43 51 58 58 65 66 69
30 31 32 33 31 31 32 31 32 35 39 44 43 41 38 36 36 36 36 36 35 33 32 30 29 29 29 30 31 31 30 30 31 32 36 37 43 49 55 57 59 62 66
30 31 30 31 32 31 31 31 33 36 38 39 45 46 44 41 39 38 38 38 39 39 37 35 34 33 32 33 34 34 33 32 31 32 34 37 40 45 50 52 54 57 61
29 30 30 30 31 33 34 34 35 35 37 40 41 46 49 47 44 43 41 40 41 41 41 40 39 39 38 36 35 36 36 34 32 32 32 35 39 41 42 47 48 55 62
26 24 23 26 31 35 37 38 39 40 40 39 42 45 48 51 50 48 46 45 45 45 44 43 45 44 43 40 38 37 36 36 35 34 32 33 34 36 40 43 46 52 57
20 19 18 18 21 23 32 35 39 42 41 43 45 47 50 51 53 51 51 49 49 49 48 46 46 46 48 43 41 39 37 37 37 36 36 36 36 36 38 39 42 47 54
20 20 19 18 20 22 25 31 38 40 39 40 44 50 55 54 55 56 59 57 55 53 51 50 48 47 48 47 45 42 41 40 40 39 38 38 38 39 40 41 44 47 56
21 21 21 20 20 23 25 34 38 45 45 45 44 47 55 61 62 61 62 64 67 64 59 58 56 52 51 51 49 46 44 44 42 42 41 40 39 40 42 43 48 53 55
15 17 19 20 20 28 30 31 39 41 48 44 46 46 47 61 71 74 71 67 66 69 67 66 65 64 58 57 54 52 48 47 48 47 45 44 42 42 43 45 50 58 61
15 16 18 21 21 23 27 30 36 38 39 45 47 50 49 54 60 73 78 78 74 72 73 73 70 70 68 64 60 60 59 50 51 51 52 48 47 45 45 45 47 49 59
22 22 26 27 31 33 34 32 33 37 43 39 44 44 46 50 51 57 67 78 87 87 84 80 76 73 71 72 67 67 67 64 60 55 57 56 54 49 47 47 48 49 49
28 28 28 28 31 38 40 39 41 42 42 49 51 46 45 47 46 49 54 64 72 81 86 89 89 84 80 80 79 81 83 80 77 76 63 66 67 60 51 49 49 52 54
31 33 34 35 35 36 39 44 45 47 48 45 42 41 37 38 41 42 45 48 56 67 80 87 93 93 89 94 95 94 96 92 89 79 75 77 71 71 66 61 63 59 57
34 35 36 37 41 44 45 45 48 49 50 49 43 39 35 32 35 37 37 37 40 48 63 75 81 88 90 93 96 93 90 91 89 84 79 78 76 75 69 65 69 68 59
38 38 40 40 43 45 48 52 57 56 56 50 45 42 41 40 37 37 37 35 33 34 39 44 53 66 77 86 89 86 95 95 90 74 78 69 71 72 68 68 74 65 59
44 44 44 46 46 47 52 53 57 64 63 59 60 50 46 45 43 40 36 35 36 35 37 39 38 39 45 57 63 65 69 68 67 62 64 62 68 66 64 66 60 56 54
48 51 50 52 53 58 57 57 56 61 59 68 62 56 52 53 51 44 37 34 39 41 39 39 39 38 36 38 47 54 55 54 55 53 51 51 56 55 59 58 54 49 49
57 59 60 67 66 66 69 69 70 64 65 69 67 61 57 59 57 55 44 35 35 41 42 40 40 41 40 37 34 39 43 45 44 49 51 46 42 41 45 46 45 42 43
63 65 74 81 85 76 76 85 83 86 84 69 67 62 64 60 56 59 55 41 41 38 42 44 41 41 41 40 34 30 32 37 34 31 34 42 39 39 34 34 37 39 40

GFSSE_prec_cthk_129.txt.gz
RH
34 25 25 25 25 23 23 24 24 24 23 23 23 23 19 18 17 16 15 16 17 18 20 23 24 26 26 27 26 26 24 24 26 28 30 34 37 41 46 48 52 54 51
35 27 27 27 28 27 26 27 27 26 25 24 24 21 20 19 19 19 18 18 18 19 21 23 25 26 28 27 26 23 22 23 25 28 29 34 39 43 48 52 58 52 52
37 34 30 30 32 32 32 32 30 29 27 26 25 24 21 21 21 22 22 21 21 22 22 23 24 27 28 27 26 25 23 23 25 27 32 44 43 44 49 54 58 56 53
39 35 34 35 37 38 36 35 35 33 30 28 27 26 25 25 23 23 24 24 24 24 24 24 26 28 28 28 28 27 25 25 26 29 36 55 52 43 48 55 57 58 56
34 31 29 30 34 37 38 39 39 38 35 32 31 30 29 29 28 27 26 25 25 25 25 25 27 29 29 29 29 28 28 28 28 33 52 48 58 47 48 55 57 58 60
35 36 30 31 34 36 39 40 41 42 41 39 38 34 33 32 32 31 29 28 26 26 26 27 27 28 29 29 28 29 28 29 30 36 52 49 50 55 50 56 58 57 61
38 37 30 32 34 37 39 41 43 43 44 44 43 43 40 38 36 35 33 31 29 28 27 27 28 29 29 29 29 29 29 30 32 56 50 46 43 51 49 55 58 58 61
36 37 36 34 37 36 38 39 42 44 44 43 44 45 46 45 44 41 39 37 34 32 30 29 29 30 30 30 30 30 30 31 32 44 51 52 40 41 47 54 59 60 62
37 38 40 41 36 36 37 38 39 42 43 46 46 45 45 45 47 47 45 42 41 38 36 33 32 31 32 32 32 32 32 32 34 45 52 50 41 38 44 52 55 59 61
33 34 37 40 39 41 36 36 36 36 38 40 43 46 47 47 48 47 47 46 46 45 46 43 37 35 35 34 34 34 34 34 34 41 51 50 43 40 41 44 51 54 57
35 34 33 35 38 40 42 41 37 36 37 40 42 43 44 44 47 50 49 49 49 49 50 51 50 45 40 39 37 37 35 35 38 39 49 46 38 37 37 41 45 46 49
37 36 36 34 33 39 42 46 40 37 35 35 36 40 42 46 49 53 56 52 51 52 52 53 56 53 50 44 43 40 39 38 42 48 49 47 41 36 34 36 39 41 43
34 35 35 33 31 31 38 38 41 44 45 43 40 39 41 46 48 55 62 61 57 57 58 56 55 54 52 50 53 55 53 47 46 51 53 49 42 38 35 36 36 37 43
27 28 28 24 22 24 27 36 42 46 49 47 49 37 38 44 43 49 58 61 64 65 64 68 69 72 69 67 64 65 67 62 58 57 56 51 42 39 37 36 36 37 39
19 22 19 19 19 20 23 27 32 46 54 52 57 55 55 51 51 56 55 59 64 65 69 70 72 72 76 80 80 77 77 69 66 65 63 54 48 42 40 40 39 39 39
20 20 15 15 15 17 18 25 30 35 38 41 46 53 52 52 49 51 53 55 60 66 70 71 75 78 80 79 78 78 74 77 77 71 69 63 55 48 43 41 41 41 41
23 23 21 21 21 21 21 25 29 36 41 43 46 48 41 43 41 43 47 54 62 66 74 80 82 81 82 78 77 77 79 78 76 74 73 78 74 63 52 47 44 46 43
25 24 24 24 24 25 26 29 37 38 46 48 48 41 39 41 41 42 43 47 51 53 54 58 66 76 88 90 77 76 71 78 80 78 84 81 78 75 68 57 51 47 48
29 27 27 27 27 27 29 31 36 38 49 50 50 46 44 42 43 45 45 46 46 47 51 49 53 58 61 68 70 95 84 77 86 85 83 79 79 79 81 74 62 54 54
32 31 30 29 29 30 31 33 36 42 47 48 50 51 49 47 48 51 50 47 45 44 42 44 47 46 49 53 57 60 73 88 92 91 96 97 90 91 92 89 85 71 59
33 34 33 31 30 30 30 33 38 40 42 50 53 52 52 52 54 54 50 48 40 35 34 37 42 42 40 45 51 59 62 76 84 93 83 96 91 85 86 89 84 80 72
35 35 35 35 33 33 34 36 37 39 44 43 49 54 51 51 54 56 51 44 39 38 36 34 35 34 33 36 43 46 59 60 63 69 78 78 74 76 71 74 72 80 78
39 40 40 39 39 39 38 40 40 43 43 47 46 43 51 55 52 51 53 50 47 45 43 40 40 41 35 31 34 45 48 56 67 61 55 55 64 62 64 60 61 72 76
40 41 41 42 43 44 43 45 45 47 48 50 52 49 52 48 56 55 56 55 52 48 45 44 49 50 45 34 33 38 43 44 56 61 69 66 57 54 51 50 51 58 64
42 42 42 43 43 44 45 47 50 54 59 58 59 64 71 68 59 55 62 62 58 53 51 53 58 54 51 46 40 36 38 40 43 51 61 57 68 68 62 53 54 49 60
43 42 40 40 40 42 46 49 51 56 64 70 71 74 77 81 78 67 66 64 64 65 59 63 62 58 57 54 48 44 43 45 42 48 51 61 63 63 71 70 65 52 48

GFSSE_prec_cthk_132.txt.gz
RH
40 24 23 22 22 21 21 23 23 23 24 26 24 22 19 17 16 16 15 16 17 19 21 24 26 27 27 27 27 28 26 24 25 27 28 31 34 39 43 48 50 48 49
40 26 25 25 25 25 24 25 25 25 26 27 26 24 21 19 18 18 18 18 18 19 22 25 26 27 28 28 26 25 23 23 24 25 26 30 35 41 45 47 51 50 51
44 32 28 28 29 29 29 29 29 28 27 27 27 25 24 23 21 21 20 20 20 21 22 25 26 27 29 28 27 26 24 23 24 26 29 33 39 41 44 50 52 50 52
44 32 31 32 33 35 35 35 35 34 32 29 28 28 26 27 25 24 24 23 23 23 24 25 26 27 28 28 29 27 26 26 27 29 39 73 63 44 43 50 53 53 51
39 30 30 30 32 35 36 38 40 40 39 36 32 31 30 30 29 28 27 27 26 26 25 25 26 27 28 28 28 28 28 28 29 37 39 56 69 48 45 51 53 54 52
37 33 30 29 32 34 36 39 39 42 43 43 41 38 36 33 33 32 30 28 27 27 27 27 27 28 28 28 28 28 28 29 31 38 64 51 41 48 49 52 53 54 54
38 32 30 32 34 36 38 39 40 41 43 44 45 44 42 41 39 37 36 34 31 29 29 28 29 29 30 30 30 30 30 29 30 43 66 50 41 45 52 52 53 54 56
36 40 33 34 36 38 37 38 39 41 43 44 45 45 44 45 46 45 44 41 38 34 32 30 30 30 31 31 31 31 30 31 31 43 47 65 47 40 42 48 54 57 58
34 36 39 38 35 36 37 36 36 39 40 41 44 46 47 47 47 48 48 48 46 42 39 35 32 31 31 32 32 33 32 32 32 38 47 55 38 40 39 46 54 56 59
33 31 32 36 39 39 37 37 36 37 38 40 42 44 46 48 49 51 51 51 52 51 48 45 42 40 37 33 33 33 33 34 33 33 42 51 49 49 42 40 47 50 55
33 34 32 31 35 39 41 41 40 39 39 38 38 40 44 46 46 48 50 51 53 55 55 52 49 46 45 42 38 36 35 34 35 35 40 48 47 42 39 38 41 44 48
34 35 33 34 34 34 38 47 47 43 37 33 32 33 34 38 40 44 49 54 58 60 59 58 57 53 49 46 44 41 37 37 36 36 40 44 50 46 41 37 39 39 43
27 26 26 28 29 30 30 34 39 51 47 39 35 31 30 34 38 44 51 56 63 74 72 65 62 58 56 52 48 46 42 40 41 39 41 46 51 47 42 38 39 40 39
27 24 22 19 19 20 22 27 29 31 36 45 46 70 58 46 42 48 50 50 57 65 69 79 78 69 63 57 56 56 56 57 56 48 44 46 52 50 44 39 37 39 39
19 17 14 14 14 17 19 22 27 34 37 40 49 68 60 50 58 61 62 63 68 71 71 74 76 71 73 69 68 63 61 65 69 70 64 56 55 53 48 41 37 37 38
20 19 17 16 16 16 16 19 25 29 32 38 37 38 42 41 44 46 47 50 51 51 58 68 75 85 86 83 78 68 65 64 63 68 73 74 73 61 55 49 42 41 42
27 26 23 21 22 21 22 21 25 30 35 40 41 38 41 45 53 55 50 46 42 43 46 53 69 80 84 85 85 95 91 81 76 71 67 74 73 71 66 59 53 46 45
29 29 27 25 25 25 25 26 26 28 31 36 40 41 46 50 52 53 49 43 42 43 43 46 52 56 65 71 73 70 98 97 98 94 83 70 74 76 75 79 71 58 54
29 29 27 26 25 26 27 28 29 30 33 35 38 40 56 51 52 55 51 46 43 43 42 43 44 45 45 47 53 65 72 73 63 89 86 94 90 90 87 90 86 76 68
29 29 29 28 27 26 27 28 31 32 34 35 39 43 46 51 55 53 54 51 49 49 45 44 43 41 38 36 35 35 41 46 54 60 60 65 89 97 98 99 87 90 87
30 30 30 30 29 28 28 28 28 30 34 35 36 36 45 46 44 51 49 50 49 51 53 48 40 34 33 35 35 32 30 35 39 49 55 62 77 85 91 85 88 79 76
31 32 32 32 32 30 30 32 33 33 35 35 36 36 37 39 42 43 44 46 46 47 48 47 40 36 35 35 36 37 33 29 33 37 40 51 56 58 67 78 64 68 67
34 34 34 33 33 33 34 35 34 35 37 37 38 38 41 40 39 41 43 42 44 46 47 48 43 37 36 39 41 46 45 40 30 29 39 53 64 63 61 65 68 67 64
35 35 34 33 32 32 34 35 36 39 41 42 42 43 45 45 44 43 44 47 48 50 50 53 49 45 43 44 46 51 50 49 46 35 28 30 41 52 68 67 58 60 63
36 35 33 32 30 32 33 33 35 39 42 44 47 51 51 50 52 52 57 56 52 54 56 53 54 52 49 50 51 54 56 55 51 50 38 32 31 41 55 63 69 59 55
35 33 30 28 28 27 28 28 28 31 37 42 42 44 50 56 63 65 69 70 74 73 72 68 63 57 55 58 57 58 60 56 56 56 48 37 35 32 41 52 69 75 71

GFSSE_prec_cthk_135.txt.gz
RH
48 41 32 21 19 20 21 21 22 24 25 26 26 21 18 16 16 16 16 17 18 19 22 24 25 26 27 28 28 29 28 25 26 27 29 32 37 40 45 46 46 46 49
48 39 32 24 22 22 24 24 24 24 25 26 26 25 21 19 19 18 18 19 19 21 22 24 25 26 27 28 30 28 25 23 25 26 28 33 38 43 46 46 47 47 49
52 43 37 28 26 26 26 28 28 28 27 27 26 25 25 24 22 21 21 21 21 22 24 25 26 26 27 27 27 26 25 24 25 28 33 39 51 47 47 51 49 48 49
45 44 41 31 30 30 31 33 33 34 32 32 30 27 25 27 26 25 24 24 24 24 25 25 26 26 27 27 26 26 26 26 27 35 42 58 67 58 46 52 53 49 50
43 43 42 34 33 35 34 35 36 37 37 36 36 33 30 30 29 28 27 26 26 26 26 26 26 26 27 27 28 27 27 28 29 36 40 67 71 63 45 50 54 50 50
42 35 31 29 31 33 34 35 37 37 38 38 40 40 38 36 34 33 32 29 27 27 28 28 27 27 27 28 28 28 28 28 29 35 46 71 56 47 47 49 52 51 48
38 33 30 31 32 34 35 35 37 38 39 40 41 43 44 43 42 40 38 36 33 30 29 29 29 29 29 29 29 29 28 28 29 34 48 75 56 44 44 48 51 51 50
34 34 31 32 34 35 35 35 36 37 39 40 41 42 44 46 45 45 45 44 41 38 34 31 30 29 29 29 29 30 29 29 29 37 44 43 60 48 37 41 47 51 52
35 33 33 34 35 37 37 35 35 36 36 37 39 40 42 45 46 47 46 47 48 46 44 38 34 31 30 31 32 30 30 30 30 35 42 40 55 47 38 37 45 50 53
31 30 32 34 35 36 36 38 38 37 36 37 38 40 43 45 47 48 48 47 48 50 49 49 46 39 36 36 34 33 33 32 31 32 40 43 43 55 49 41 42 47 49
31 32 32 32 36 39 38 37 42 45 40 35 35 37 37 39 43 47 48 51 53 53 54 54 52 51 46 41 38 37 35 34 34 35 35 43 44 46 50 44 41 43 44
23 26 30 31 31 30 35 38 40 39 39 45 49 40 33 31 33 35 37 39 43 50 57 60 62 59 56 53 47 45 42 39 38 36 36 40 47 49 49 46 41 39 42
23 25 25 24 25 24 26 29 31 33 32 35 39 51 61 46 39 36 40 41 45 52 53 63 67 67 67 62 57 54 51 49 46 44 42 41 44 49 50 47 43 39 41
19 19 18 18 20 21 22 24 28 32 35 35 34 37 42 49 60 62 53 54 58 55 65 68 67 70 74 74 75 70 67 62 56 52 50 54 52 53 52 53 48 40 38
17 14 13 12 12 12 12 17 23 32 38 43 45 45 44 45 52 57 52 48 58 64 69 68 68 69 76 83 90 82 78 76 73 71 68 70 62 61 65 62 54 48 39
20 18 20 19 17 16 15 15 17 23 31 40 46 52 55 54 59 56 48 41 41 43 48 51 53 58 65 71 76 86 89 91 93 96 92 91 78 74 76 77 69 62 50
24 22 22 23 23 22 21 22 22 23 25 28 34 41 50 54 50 50 47 46 46 47 47 47 43 42 45 54 64 76 85 92 93 88 90 93 98 96 89 87 78 72 63
26 25 25 25 25 24 24 24 24 24 25 27 29 33 37 43 45 40 45 50 52 49 46 41 39 36 39 43 48 54 65 76 79 75 74 74 77 95 93 90 87 85 83
27 26 25 25 24 25 25 25 26 27 28 28 28 31 32 37 41 43 47 48 49 51 52 47 44 40 37 38 39 39 39 42 50 49 53 54 78 70 89 89 93 98 97
27 27 25 24 24 24 24 24 25 25 26 27 27 29 29 31 34 37 51 50 65 51 52 52 51 49 45 39 35 29 26 27 31 35 39 45 55 59 65 82 74 98 98
28 27 26 25 25 25 24 25 26 28 27 26 26 26 27 30 32 34 38 44 43 45 55 45 47 46 45 37 32 28 27 26 27 31 35 33 35 45 58 73 74 71 82
28 29 28 28 28 27 26 26 28 29 29 29 28 28 27 27 29 31 34 36 36 38 40 42 45 46 45 42 38 33 30 29 33 36 37 34 35 38 42 49 59 59 59
31 31 31 29 27 26 26 26 28 29 30 30 30 31 32 33 34 34 34 35 36 35 36 38 43 46 49 48 46 44 40 39 34 32 33 32 31 34 43 52 55 59 64
33 32 30 27 23 21 21 21 22 24 26 28 30 33 35 37 40 44 43 44 45 45 41 40 39 44 47 50 51 52 50 47 45 38 37 37 33 31 28 37 46 58 62
34 32 30 26 22 19 17 17 18 18 20 21 23 25 29 33 35 38 42 50 53 54 54 54 51 52 53 54 53 53 55 54 49 48 38 41 39 36 34 34 40 47 63
34 31 28 26 23 21 21 20 19 20 21 21 22 24 26 29 32 35 39 43 46 51 60 67 69 68 68 66 64 59 57 58 61 61 56 45 41 37 39 32 34 46 52